• en France
  • Liste des pays
  • À 7 jours
  • Température de l'eau
  • Carte satellitaire
  • Carte météo
  • Widgets météo
  • user-avatar
    Se connecter

    Météo par heure à Zirani

    Ce jour, 16 Octobre, Mardi

    Heure Température Précipitation Vent Pression Humidité
    00:00 +13°C° 0 mm 1 m/s 720 mmHg 61%
    01:00 +13°C° 0 mm 1 m/s 720 mmHg 62%
    02:00 +13°C° 0 mm 1 m/s 720 mmHg 63%
    03:00 +13°C° 0 mm 1 m/s 720 mmHg 66%
    04:00 +13°C° 0 mm 1 m/s 720 mmHg 66%
    05:00 +13°C° 0 mm 1 m/s 720 mmHg 66%
    06:00 +13°C° 0 mm 1 m/s 720 mmHg 67%
    07:00 +15°C° 0 mm 1 m/s 720 mmHg 62%
    08:00 +18°C° 0 mm 1 m/s 721 mmHg 57%
    09:00 +20°C° 0 mm 1 m/s 721 mmHg 52%
    10:00 +19°C° 0 mm 2 m/s 721 mmHg 51%
    11:00 +20°C° 0 mm 2 m/s 721 mmHg 51%
    12:00 +21°C° 0 mm 3 m/s 721 mmHg 50%
    13:00 +21°C° 0 mm 3 m/s 721 mmHg 52%
    14:00 +21°C° 0 mm 3 m/s 721 mmHg 54%
    15:00 +20°C° 0 mm 2 m/s 721 mmHg 56%
    16:00 +19°C° 0 mm 2 m/s 721 mmHg 64%
    17:00 +17°C° 0 mm 2 m/s 721 mmHg 72%
    18:00 +16°C° 0 mm 1 m/s 720 mmHg 80%
    19:00 +15°C° 0 mm 1 m/s 720 mmHg 80%
    20:00 +15°C° 0 mm 1 m/s 720 mmHg 81%
    21:00 +15°C° 0 mm 1 m/s 720 mmHg 81%
    22:00 +15°C° 0 mm 1 m/s 720 mmHg 79%
    23:00 +14°C° 0 mm 2 m/s 720 mmHg 78%

    Demain, 17 Octobre, Mercredi

    Heure Température Précipitation Vent Pression Humidité
    00:00 +14°C° 0 mm 2 m/s 720 mmHg 77%
    01:00 +14°C° 0 mm 2 m/s 720 mmHg 76%
    02:00 +14°C° 0 mm 2 m/s 720 mmHg 74%
    03:00 +14°C° 0 mm 2 m/s 720 mmHg 73%
    04:00 +14°C° 0 mm 2 m/s 719 mmHg 71%
    05:00 +13°C° 0 mm 2 m/s 719 mmHg 70%
    06:00 +13°C° 0 mm 2 m/s 719 mmHg 68%
    07:00 +15°C° 0 mm 2 m/s 719 mmHg 60%
    08:00 +18°C° 0 mm 2 m/s 720 mmHg 53%
    09:00 +21°C° 0 mm 1 m/s 720 mmHg 45%
    10:00 +21°C° 0 mm 2 m/s 720 mmHg 44%
    11:00 +23°C° 0 mm 2 m/s 720 mmHg 43%
    12:00 +22°C° 0 mm 3 m/s 719 mmHg 42%
    13:00 +22°C° 0 mm 3 m/s 719 mmHg 45%
    14:00 +22°C° 0 mm 3 m/s 719 mmHg 49%
    15:00 +22°C° 0 mm 3 m/s 718 mmHg 53%
    16:00 +20°C° 0 mm 2 m/s 718 mmHg 63%
    17:00 +18°C° 0 mm 2 m/s 718 mmHg 73%
    18:00 +16°C° 0 mm 1 m/s 718 mmHg 83%
    19:00 +16°C° 0 mm 1 m/s 718 mmHg 81%
    20:00 +16°C° 0 mm 1 m/s 718 mmHg 80%
    21:00 +15°C° 0 mm 1 m/s 718 mmHg 78%
    22:00 +15°C° 0 mm 1 m/s 718 mmHg 74%
    23:00 +15°C° 0 mm 1 m/s 717 mmHg 71%

    Après-demain, 18 Octobre, Jeudi

    Heure Température Précipitation Vent Pression Humidité
    00:00 +15°C° 0 mm 1 m/s 717 mmHg 68%
    01:00 +14°C° 0 mm 1 m/s 717 mmHg 65%
    02:00 +14°C° 0 mm 1 m/s 717 mmHg 62%
    03:00 +14°C° 0 mm 1 m/s 717 mmHg 60%
    04:00 +14°C° 0 mm 1 m/s 717 mmHg 57%
    05:00 +14°C° 0 mm 1 m/s 717 mmHg 53%
    06:00 +13°C° 0 mm 1 m/s 717 mmHg 50%
    07:00 +16°C° 0 mm 1 m/s 717 mmHg 46%
    08:00 +19°C° 0 mm 1 m/s 717 mmHg 41%
    09:00 +21°C° 0 mm 1 m/s 718 mmHg 36%
    10:00 +22°C° 0 mm 1 m/s 718 mmHg 36%
    11:00 +23°C° 0 mm 2 m/s 718 mmHg 36%
    12:00 +24°C° 0 mm 2 m/s 718 mmHg 36%
    13:00 +23°C° 0 mm 2 m/s 717 mmHg 40%
    14:00 +23°C° 0 mm 2 m/s 717 mmHg 43%
    15:00 +23°C° 0 mm 2 m/s 717 mmHg 47%
    16:00 +20°C° 0 mm 2 m/s 717 mmHg 58%
    17:00 +18°C° 0 mm 2 m/s 717 mmHg 69%
    18:00 +16°C° 0 mm 1 m/s 717 mmHg 81%
    19:00 +16°C° 0 mm 1 m/s 717 mmHg 78%
    20:00 +16°C° 0 mm 1 m/s 717 mmHg 75%
    21:00 +15°C° 0 mm 1 m/s 717 mmHg 72%
    22:00 +15°C° 0 mm 2 m/s 717 mmHg 67%
    23:00 +15°C° 0 mm 2 m/s 717 mmHg 63%

    19 Octobre, Vendredi

    Heure Température Précipitation Vent Pression Humidité
    00:00 +15°C° 0 mm 2 m/s 717 mmHg 58%
    01:00 +14°C° 0 mm 2 m/s 717 mmHg 56%
    02:00 +14°C° 0 mm 2 m/s 717 mmHg 53%
    03:00 +14°C° 0 mm 2 m/s 717 mmHg 50%
    04:00 +14°C° 0 mm 2 m/s 717 mmHg 48%
    05:00 +14°C° 0 mm 2 m/s 716 mmHg 46%
    06:00 +14°C° 0 mm 2 m/s 716 mmHg 43%
    07:00 +16°C° 0 mm 2 m/s 717 mmHg 39%
    08:00 +18°C° 0 mm 2 m/s 717 mmHg 34%
    09:00 +21°C° 0 mm 2 m/s 717 mmHg 29%
    10:00 +23°C° 0 mm 2 m/s 717 mmHg 28%
    11:00 +24°C° 0 mm 2 m/s 717 mmHg 27%
    12:00 +25°C° 0 mm 3 m/s 717 mmHg 26%
    13:00 +25°C° 0 mm 3 m/s 717 mmHg 30%
    14:00 +24°C° 0 mm 3 m/s 716 mmHg 35%
    15:00 +24°C° 0 mm 3 m/s 716 mmHg 39%
    16:00 +21°C° 0 mm 2 m/s 716 mmHg 48%
    17:00 +19°C° 0 mm 2 m/s 716 mmHg 58%
    18:00 +17°C° 0 mm 2 m/s 716 mmHg 68%
    19:00 +17°C° 0 mm 2 m/s 716 mmHg 66%
    20:00 +16°C° 0 mm 2 m/s 716 mmHg 64%
    21:00 +16°C° 0 mm 2 m/s 716 mmHg 62%
    22:00 +16°C° 0 mm 2 m/s 715 mmHg 61%
    23:00 +16°C° 0 mm 2 m/s 715 mmHg 60%

    20 Octobre, Samedi

    Heure Température Précipitation Vent Pression Humidité
    00:00 +16°C° 0 mm 2 m/s 715 mmHg 59%
    01:00 +16°C° 0 mm 2 m/s 715 mmHg 58%
    02:00 +15°C° 0 mm 2 m/s 714 mmHg 57%
    03:00 +15°C° 0 mm 2 m/s 714 mmHg 57%
    04:00 +15°C° 0 mm 2 m/s 714 mmHg 54%
    05:00 +15°C° 0 mm 2 m/s 714 mmHg 51%
    06:00 +15°C° 0 mm 2 m/s 714 mmHg 49%
    07:00 +17°C° 0 mm 2 m/s 714 mmHg 42%
    08:00 +20°C° 0 mm 2 m/s 714 mmHg 36%
    09:00 +24°C° 0 mm 1 m/s 715 mmHg 29%
    10:00 +25°C° 0 mm 2 m/s 714 mmHg 28%
    11:00 +26°C° 0 mm 2 m/s 714 mmHg 27%
    12:00 +27°C° 0 mm 2 m/s 714 mmHg 26%
    13:00 +26°C° 0 mm 2 m/s 714 mmHg 29%
    14:00 +26°C° 0 mm 2 m/s 714 mmHg 32%
    15:00 +25°C° 0 mm 2 m/s 714 mmHg 35%
    16:00 +23°C° 0 mm 2 m/s 713 mmHg 42%
    17:00 +21°C° 0 mm 1 m/s 713 mmHg 50%
    18:00 +19°C° 0 mm 1 m/s 713 mmHg 57%
    19:00 +19°C° 0 mm 1 m/s 713 mmHg 56%
    20:00 +19°C° 0 mm 1 m/s 714 mmHg 54%
    21:00 +19°C° 0 mm 1 m/s 714 mmHg 53%
    22:00 +18°C° 0 mm 1 m/s 713 mmHg 52%
    23:00 +18°C° 0 mm 1 m/s 713 mmHg 52%

    21 Octobre, Dimanche

    Heure Température Précipitation Vent Pression Humidité
    00:00 +18°C° 0 mm 1 m/s 713 mmHg 51%
    01:00 +18°C° 0 mm 1 m/s 713 mmHg 51%
    02:00 +16°C° 0 mm 1 m/s 713 mmHg 52%
    03:00 +16°C° 0 mm 1 m/s 713 mmHg 52%
    04:00 +16°C° 0 mm 1 m/s 713 mmHg 52%
    05:00 +16°C° 0 mm 1 m/s 713 mmHg 51%
    06:00 +16°C° 0 mm 1 m/s 713 mmHg 51%
    07:00 +19°C° 0 mm 1 m/s 713 mmHg 48%
    08:00 +20°C° 0 mm 1 m/s 713 mmHg 44%
    09:00 +22°C° 0 mm 1 m/s 714 mmHg 41%
    10:00 +23°C° 0 mm 1 m/s 713 mmHg 40%
    11:00 +24°C° 0 mm 1 m/s 713 mmHg 39%
    12:00 +25°C° 0 mm 2 m/s 713 mmHg 38%
    13:00 +24°C° 0 mm 2 m/s 713 mmHg 41%
    14:00 +24°C° 0 mm 2 m/s 712 mmHg 44%
    15:00 +24°C° 0 mm 2 m/s 712 mmHg 47%
    16:00 +22°C° 0 mm 1 m/s 712 mmHg 54%
    17:00 +20°C° 0 mm 1 m/s 712 mmHg 62%
    18:00 +17°C° 0 mm 0 m/s 712 mmHg 69%
    19:00 +17°C° 0 mm 0 m/s 712 mmHg 69%
    20:00 +17°C° 0 mm 0 m/s 712 mmHg 68%
    21:00 +17°C° 0 mm 0 m/s 712 mmHg 67%
    22:00 +16°C° 0 mm 0 m/s 712 mmHg 68%
    23:00 +18°C° 0 mm 1 m/s 712 mmHg 68%
    Voir plus